DECAYED

DMSP 5D-2 F13 DEB, 42280 (Decayed)

Orbit data source: Space-Track

DMSP 5D-2 F13 DEB, 42280 was space debris in SSO originally from a launch on Fri, 24 Mar 1995 UTC launched from the Air Force Western Test Range (AFWTR). Debris objects in space refer to the collection of defunct objects orbiting the Earth. Examples of debris include non-operational satellites, rocket bodies, and fragments generated from explosions, collisions, or faulty payload assembly.

Not visible in the next 10 days
Identifier
42280, 1995-015GW
Orbit
Decayed
Country
Flag of USUS
Related business
Manufacturer
Unknown
Mission
Decayed spacecraft
Bus & Motor
Unknown
Mass
Unknown
Launch date (UTC)
1995-03-24 (31 years ago)
Launch vehicle
Unknown
Launch site
Air Force Western Test Range (AFWTR)
Object type
Payload
Rocket body
Debris
Shape & HBR
Unknown shape, 0.1 m
Radar Cross Section
Small (<0.1 m²)

Expand to show TLE details & history
Last TLE update: 9 months ago

TLE from 9 months ago
0 DMSP 5D-2 F13 DEB
1 42280U 95015GW  25221.03694547  .07154181  66846-1  32250-1 0  9997
2 42280  98.7056 316.3680 0029055 288.6582  71.1532 15.87871010538148
Epoch: 2025-08-09T00:53Z
TLE epoch observation values (Epoch: 2025-08-09T00:53:12.088Z)
Latitude
Longitude
-14.71077°
Altitude
305.166 km
Speed
7.728 km/s
True Right ascension
21h 05m 28s
True Declination
0° 00' 00"
Sunlit
Object was in full shadow at epoch
Visualization orbit readout
Latitude
Unknown
Longitude
Unknown
Altitude
Unknown
Speed
Unknown
Apparent Right ascension
Unknown
Apparent Declination
Unknown
Sunlit
N/A
Visualization observer readout
Local Sidereal Time
06:16:48
Azimuth
Unknown
Elevation
Unknown
Doppler factor
Unknown
Orbital elements
Apogee altitude
324.609 km
Perigee altitude
285.773 km
Semi-major axis
6,683.328 km
Eccentricity
0.00291
Inclination
98.7056°
RAAN
316.368°
Arg. of periapsis
288.6582°
True anomaly
71.46866°
Mean anomaly
71.1532°
Eccentric anomaly
71.31089°
Mean motion
3.97241 °/min
Orbital period
90.63 mins
BSTAR
0.03225

Documentation

Showing up to 5 results
|